| time (UTC) | temp C | wind direction | speed KPH | gust KPH | rain 1hr cm | rain 24hr cm | rain mn cm | humidity % | barometer mb |
| 20260506004551 | 20 | 0 | 3.2 | 6.4 | 0.00 | 0.03 | 0.03 | 54 | 1009.1 |
| 20260506003049 | 20 | 249 | 3.2 | 16.1 | 0.00 | 0.03 | 0.03 | 52 | 1008.7 |
| 20260506001549 | 21 | 286 | 3.2 | 12.9 | 0.00 | 0.03 | 0.03 | 52 | 1008.3 |
| 20260506000050 | 21 | 5 | 3.2 | 9.7 | 0.00 | 0.03 | 0.03 | 51 | 1008.2 |
| 20260505234557 | 22 | 149 | 4.8 | 14.5 | 0.00 | 0.03 | 0.03 | 49 | 1007.9 |
| 20260505233103 | 22 | 263 | 3.2 | 12.9 | 0.00 | 0.03 | 0.03 | 49 | 1007.7 |
| 20260505231555 | 22 | 157 | 3.2 | 16.1 | 0.00 | 0.03 | 0.03 | 48 | 1007.5 |
| 20260505230054 | 23 | 331 | 4.8 | 14.5 | 0.00 | 0.03 | 0.03 | 47 | 1007.2 |
| 20260505224553 | 23 | 225 | 3.2 | 9.7 | 0.00 | 0.03 | 0.03 | 46 | 1007.1 |
| 20260505223057 | 23 | 85 | 3.2 | 16.1 | 0.00 | 0.03 | 0.03 | 46 | 1006.8 |
| 20260505221552 | 24 | 0 | 4.8 | 16.1 | 0.00 | 0.03 | 0.03 | 45 | 1006.4 |
| 20260505220049 | 25 | 225 | 4.8 | 17.7 | 0.00 | 0.03 | 0.03 | 43 | 1006.4 |
| 20260505214550 | 25 | 173 | 6.4 | 17.7 | 0.00 | 0.03 | 0.03 | 41 | 1006.2 |
| 20260505213049 | 26 | 315 | 3.2 | 14.5 | 0.00 | 0.03 | 0.03 | 40 | 1006.1 |
| 20260505211600 | 26 | 258 | 6.4 | 14.5 | 0.00 | 0.03 | 0.03 | 39 | 1006.0 |
| 20260505210050 | 26 | 212 | 3.2 | 14.5 | 0.00 | 0.03 | 0.03 | 39 | 1005.8 |
| 20260505204549 | 27 | 205 | 8.0 | 19.3 | 0.00 | 0.03 | 0.03 | 40 | 1005.7 |
| 20260505203049 | 27 | 191 | 4.8 | 20.9 | 0.00 | 0.03 | 0.03 | 38 | 1005.8 |
| 20260505201545 | 28 | 281 | 3.2 | 19.3 | 0.00 | 0.03 | 0.03 | 37 | 1005.8 |
| 20260505200049 | 28 | 245 | 4.8 | 14.5 | 0.00 | 0.03 | 0.03 | 36 | 1005.8 |
| 20260505194605 | 28 | 252 | 4.8 | 16.1 | 0.00 | 0.03 | 0.03 | 37 | 1005.9 |
| 20260505193048 | 27 | 167 | 3.2 | 17.7 | 0.00 | 0.03 | 0.03 | 38 | 1006.2 |
| 20260505191544 | 28 | 298 | 4.8 | 14.5 | 0.00 | 0.03 | 0.03 | 37 | 1006.3 |
| 20260505190051 | 28 | 177 | 4.8 | 19.3 | 0.00 | 0.03 | 0.03 | 38 | 1006.5 |
| 20260505184552 | 28 | 184 | 6.4 | 20.9 | 0.00 | 0.03 | 0.03 | 36 | 1006.8 |
| 20260505183056 | 27 | 240 | 4.8 | 19.3 | 0.00 | 0.03 | 0.03 | 38 | 1007.0 |
| 20260505181556 | 27 | 134 | 4.8 | 24.1 | 0.00 | 0.03 | 0.03 | 37 | 1007.3 |
| 20260505180059 | 28 | 152 | 3.2 | 17.7 | 0.00 | 0.03 | 0.03 | 36 | 1007.5 |
| 20260505174602 | 27 | 334 | 3.2 | 11.3 | 0.00 | 0.03 | 0.03 | 38 | 1007.5 |
| 20260505173051 | 27 | 195 | 3.2 | 11.3 | 0.00 | 0.03 | 0.03 | 37 | 1007.8 |
| 20260505171553 | 27 | 204 | 4.8 | 14.5 | 0.00 | 0.03 | 0.03 | 37 | 1008.1 |
| 20260505170054 | 26 | 199 | 3.2 | 14.5 | 0.00 | 0.03 | 0.03 | 41 | 1008.3 |
| 20260505164614 | 26 | 242 | 4.8 | 14.5 | 0.00 | 0.03 | 0.03 | 39 | 1008.6 |
| 20260505163102 | 25 | 297 | 3.2 | 14.5 | 0.00 | 0.03 | 0.03 | 43 | 1008.9 |
| 20260505161550 | 25 | 0 | 3.2 | 11.3 | 0.00 | 0.03 | 0.03 | 43 | 1009.2 |
| 20260505153053 | 22 | 300 | 3.2 | 11.3 | 0.00 | 0.03 | 0.03 | 50 | 1009.9 |
| 20260505151550 | 22 | 136 | 3.2 | 12.9 | 0.00 | 0.03 | 0.03 | 51 | 1009.8 |
| 20260505130108 | 17 | 0 | 1.6 | 8.0 | 0.00 | 0.00 | 0.00 | 63 | 1010.3 |
| 20260505124556 | 17 | 204 | 1.6 | 12.9 | 0.00 | 0.00 | 0.00 | 62 | 1010.3 |
| 20260505123050 | 17 | 209 | 1.6 | 8.0 | 0.00 | 0.00 | 0.00 | 63 | 1010.4 |
| 20260505121552 | 16 | 193 | 3.2 | 9.7 | 0.00 | 0.00 | 0.00 | 64 | 1010.5 |
| 20260505120106 | 16 | 19 | 1.6 | 9.7 | 0.00 | 0.00 | 0.00 | 66 | 1010.3 |
| 20260505114549 | 15 | 306 | 1.6 | 9.7 | 0.00 | 0.00 | 0.00 | 68 | 1010.3 |
| 20260505113053 | 14 | 248 | 1.6 | 6.4 | 0.00 | 0.00 | 0.00 | 69 | 1010.1 |
| 20260505111549 | 13 | 251 | 1.6 | 9.7 | 0.00 | 0.00 | 0.00 | 70 | 1010.1 |
| 20260505101546 | 12 | 218 | 1.6 | 8.0 | 0.00 | 0.00 | 0.00 | 72 | 1010.2 |
| 20260505100049 | 12 | 0 | 0.0 | 4.8 | 0.00 | 0.00 | 0.00 | 71 | 1010.1 |
| 20260505094547 | 12 | 257 | 0.0 | 8.0 | 0.00 | 0.00 | 0.00 | 71 | 1010.1 |
| 20260505093048 | 12 | 0 | 1.6 | 8.0 | 0.00 | 0.00 | 0.00 | 72 | 1010.2 |
| 20260505091546 | 12 | 253 | 0.0 | 11.3 | 0.00 | 0.00 | 0.00 | 72 | 1010.1 |
| 20260505090048 | 12 | 0 | 0.0 | 4.8 | 0.00 | 0.00 | 0.00 | 71 | 1010.3 |
| 20260505084548 | 12 | 0 | 0.0 | 6.4 | 0.00 | 0.00 | 0.00 | 70 | 1010.3 |
| 20260505083050 | 12 | 236 | 0.0 | 4.8 | 0.00 | 0.00 | 0.00 | 69 | 1010.3 |
| 20260505081553 | 12 | 0 | 0.0 | 6.4 | 0.00 | 0.00 | 0.00 | 68 | 1010.3 |
| 20260505080055 | 12 | 306 | 0.0 | 3.2 | 0.00 | 0.00 | 0.00 | 68 | 1010.6 |
| 20260505074548 | 12 | 0 | 0.0 | 3.2 | 0.00 | 0.00 | 0.00 | 67 | 1010.6 |
| 20260505073051 | 12 | 221 | 1.6 | 6.4 | 0.00 | 0.00 | 0.00 | 67 | 1010.6 |
| 20260505071553 | 12 | 212 | 1.6 | 6.4 | 0.00 | 0.00 | 0.00 | 67 | 1010.6 |
| 20260505070101 | 12 | 196 | 0.0 | 4.8 | 0.00 | 0.00 | 0.00 | 66 | 1010.8 |
| 20260505064555 | 13 | 0 | 0.0 | 3.2 | 0.00 | 0.00 | 0.00 | 66 | 1010.7 |
| 20260505063049 | 13 | 0 | 0.0 | 3.2 | 0.00 | 0.00 | 0.00 | 65 | 1010.7 |
| 20260505061556 | 13 | 122 | 0.0 | 3.2 | 0.00 | 0.00 | 0.00 | 64 | 1010.6 |
| 20260505060046 | 13 | 217 | 1.6 | 4.8 | 0.00 | 0.00 | 0.00 | 64 | 1010.8 |
| 20260505054555 | 13 | 219 | 0.0 | 4.8 | 0.00 | 0.00 | 0.00 | 63 | 1010.8 |
| 20260505053102 | 13 | 13 | 0.0 | 6.4 | 0.00 | 0.00 | 0.00 | 63 | 1010.9 |
| 20260505051551 | 13 | 299 | 1.6 | 11.3 | 0.00 | 0.00 | 0.00 | 62 | 1010.8 |
| 20260505041553 | 14 | 286 | 0.0 | 8.0 | 0.00 | 0.00 | 0.00 | 58 | 1011.0 |
| 20260505040052 | 14 | 234 | 0.0 | 6.4 | 0.00 | 0.00 | 0.00 | 57 | 1010.9 |
| 20260505034554 | 15 | 338 | 1.6 | 4.8 | 0.00 | 0.00 | 0.00 | 56 | 1011.0 |
| 20260505033049 | 15 | 0 | 1.6 | 8.0 | 0.00 | 0.00 | 0.00 | 55 | 1010.8 |
| 20260505031548 | 15 | 0 | 1.6 | 6.4 | 0.00 | 0.00 | 0.00 | 54 | 1010.7 |
| 20260505030049 | 15 | 320 | 1.6 | 9.7 | 0.00 | 0.00 | 0.00 | 53 | 1010.9 |
| 20260505024551 | 15 | 154 | 3.2 | 9.7 | 0.00 | 0.00 | 0.00 | 52 | 1010.8 |
| 20260505023056 | 15 | 204 | 1.6 | 9.7 | 0.00 | 0.00 | 0.00 | 51 | 1010.9 |
| 20260505021549 | 16 | 182 | 1.6 | 6.4 | 0.00 | 0.00 | 0.00 | 50 | 1010.9 |
| 20260505020052 | 16 | 0 | 1.6 | 12.9 | 0.00 | 0.00 | 0.00 | 49 | 1010.8 |
| 20260505014548 | 16 | 247 | 1.6 | 9.7 | 0.00 | 0.00 | 0.00 | 48 | 1010.6 |
| 20260505013044 | 16 | 0 | 1.6 | 6.4 | 0.00 | 0.00 | 0.00 | 48 | 1010.4 |
| 20260505011554 | 17 | 280 | 1.6 | 9.7 | 0.00 | 0.00 | 0.00 | 47 | 1010.0 |
| 20260505010051 | 17 | 251 | 1.6 | 9.7 | 0.00 | 0.00 | 0.00 | 46 | 1009.7 |